#datetime,building,power
2022-11-12T00:00:00,mcc,62.95
2022-11-12T00:01:00,mcc,62.89
2022-11-12T00:02:00,mcc,60.55
2022-11-12T00:03:00,mcc,64.85
2022-11-12T00:04:00,mcc,60.70
2022-11-12T00:05:00,mcc,84.92
2022-11-12T00:06:00,mcc,61.01
2022-11-12T00:07:00,mcc,68.11
2022-11-12T00:08:00,mcc,57.44
2022-11-12T00:09:00,mcc,57.66
2022-11-12T00:10:00,mcc,60.00
2022-11-12T00:11:00,mcc,61.80
2022-11-12T00:12:00,mcc,58.52
2022-11-12T00:13:00,mcc,55.82
2022-11-12T00:14:00,mcc,55.37
2022-11-12T00:15:00,mcc,56.93
2022-11-12T00:16:00,mcc,57.19
2022-11-12T00:17:00,mcc,57.81
2022-11-12T00:18:00,mcc,55.80
2022-11-12T00:19:00,mcc,56.87
2022-11-12T00:20:00,mcc,55.55
2022-11-12T00:21:00,mcc,54.96
2022-11-12T00:22:00,mcc,56.33
2022-11-12T00:23:00,mcc,53.18
2022-11-12T00:24:00,mcc,53.86
2022-11-12T00:25:00,mcc,54.67
2022-11-12T00:26:00,mcc,55.32
2022-11-12T00:27:00,mcc,54.43
2022-11-12T00:28:00,mcc,53.74
2022-11-12T00:29:00,mcc,52.97
2022-11-12T00:30:00,mcc,51.50
2022-11-12T00:31:00,mcc,54.02
2022-11-12T00:32:00,mcc,50.12
2022-11-12T00:33:00,mcc,50.59
2022-11-12T00:34:00,mcc,50.12
2022-11-12T00:35:00,mcc,49.53
2022-11-12T00:36:00,mcc,48.44
2022-11-12T00:37:00,mcc,49.91
2022-11-12T00:38:00,mcc,49.15
2022-11-12T00:39:00,mcc,49.31
2022-11-12T00:40:00,mcc,48.33
2022-11-12T00:41:00,mcc,48.20
2022-11-12T00:42:00,mcc,47.38
2022-11-12T00:43:00,mcc,51.15
2022-11-12T00:44:00,mcc,48.24
2022-11-12T00:45:00,mcc,56.23
2022-11-12T00:46:00,mcc,45.56
2022-11-12T00:47:00,mcc,48.95
2022-11-12T00:48:00,mcc,46.66
2022-11-12T00:49:00,mcc,48.25
2022-11-12T00:50:00,mcc,49.03
2022-11-12T00:51:00,mcc,49.74
2022-11-12T00:52:00,mcc,47.67
2022-11-12T00:53:00,mcc,48.12
2022-11-12T00:54:00,mcc,48.80
2022-11-12T00:55:00,mcc,53.35
2022-11-12T00:56:00,mcc,50.60
2022-11-12T00:57:00,mcc,49.79
2022-11-12T00:58:00,mcc,49.66
2022-11-12T00:59:00,mcc,52.55
2022-11-12T01:00:00,mcc,49.92
2022-11-12T01:01:00,mcc,50.30
2022-11-12T01:02:00,mcc,61.90
2022-11-12T01:03:00,mcc,51.32
2022-11-12T01:04:00,mcc,56.95
2022-11-12T01:05:00,mcc,55.37
2022-11-12T01:06:00,mcc,46.85
2022-11-12T01:07:00,mcc,49.01
2022-11-12T01:08:00,mcc,46.97
2022-11-12T01:09:00,mcc,47.84
2022-11-12T01:10:00,mcc,58.02
2022-11-12T01:11:00,mcc,59.63
2022-11-12T01:12:00,mcc,56.56
2022-11-12T01:13:00,mcc,46.73
2022-11-12T01:14:00,mcc,46.96
2022-11-12T01:15:00,mcc,48.53
2022-11-12T01:16:00,mcc,47.61
2022-11-12T01:17:00,mcc,46.37
2022-11-12T01:18:00,mcc,45.52
2022-11-12T01:19:00,mcc,46.41
2022-11-12T01:20:00,mcc,45.05
2022-11-12T01:21:00,mcc,46.05
2022-11-12T01:22:00,mcc,46.02
2022-11-12T01:23:00,mcc,49.63
2022-11-12T01:24:00,mcc,49.08
2022-11-12T01:25:00,mcc,48.15
2022-11-12T01:26:00,mcc,47.97
2022-11-12T01:27:00,mcc,49.77
2022-11-12T01:28:00,mcc,48.54
2022-11-12T01:29:00,mcc,48.41
2022-11-12T01:30:00,mcc,48.69
2022-11-12T01:31:00,mcc,52.37
2022-11-12T01:32:00,mcc,58.53
2022-11-12T01:33:00,mcc,58.85
2022-11-12T01:34:00,mcc,57.81
2022-11-12T01:35:00,mcc,60.84
2022-11-12T01:36:00,mcc,51.65
2022-11-12T01:37:00,mcc,50.69
2022-11-12T01:38:00,mcc,49.86
2022-11-12T01:39:00,mcc,49.48
2022-11-12T01:40:00,mcc,49.03
2022-11-12T01:41:00,mcc,47.25
2022-11-12T01:42:00,mcc,47.93
2022-11-12T01:43:00,mcc,49.05
2022-11-12T01:44:00,mcc,51.54
2022-11-12T01:45:00,mcc,48.43
2022-11-12T01:46:00,mcc,47.16
2022-11-12T01:47:00,mcc,47.52
2022-11-12T01:48:00,mcc,51.73
2022-11-12T01:49:00,mcc,48.89
2022-11-12T01:50:00,mcc,48.33
2022-11-12T01:51:00,mcc,47.38
2022-11-12T01:52:00,mcc,49.51
2022-11-12T01:53:00,mcc,45.82
2022-11-12T01:54:00,mcc,46.85
2022-11-12T01:55:00,mcc,48.15
2022-11-12T01:56:00,mcc,51.30
2022-11-12T01:57:00,mcc,48.89
2022-11-12T01:58:00,mcc,47.86
2022-11-12T01:59:00,mcc,47.69
2022-11-12T02:00:00,mcc,49.36
2022-11-12T02:01:00,mcc,50.02
2022-11-12T02:02:00,mcc,49.30
2022-11-12T02:03:00,mcc,49.56
2022-11-12T02:04:00,mcc,60.81
2022-11-12T02:05:00,mcc,52.60
2022-11-12T02:06:00,mcc,53.05
2022-11-12T02:07:00,mcc,52.02
2022-11-12T02:08:00,mcc,51.88
2022-11-12T02:09:00,mcc,52.23
2022-11-12T02:10:00,mcc,50.91
2022-11-12T02:11:00,mcc,50.07
2022-11-12T02:12:00,mcc,49.67
2022-11-12T02:13:00,mcc,48.39
2022-11-12T02:14:00,mcc,47.01
2022-11-12T02:15:00,mcc,47.96
2022-11-12T02:16:00,mcc,47.52
2022-11-12T02:17:00,mcc,49.94
2022-11-12T02:18:00,mcc,48.75
2022-11-12T02:19:00,mcc,49.06
2022-11-12T02:20:00,mcc,46.96
2022-11-12T02:21:00,mcc,46.20
2022-11-12T02:22:00,mcc,48.21
2022-11-12T02:23:00,mcc,47.98
2022-11-12T02:24:00,mcc,55.67
2022-11-12T02:25:00,mcc,47.40
2022-11-12T02:26:00,mcc,48.40
2022-11-12T02:27:00,mcc,49.12
2022-11-12T02:28:00,mcc,49.55
2022-11-12T02:29:00,mcc,52.01
2022-11-12T02:30:00,mcc,52.29
2022-11-12T02:31:00,mcc,52.05
2022-11-12T02:32:00,mcc,50.68
2022-11-12T02:33:00,mcc,52.48
2022-11-12T02:34:00,mcc,59.29
2022-11-12T02:35:00,mcc,51.16
2022-11-12T02:36:00,mcc,63.57
2022-11-12T02:37:00,mcc,51.25
2022-11-12T02:38:00,mcc,51.35
2022-11-12T02:39:00,mcc,49.40
2022-11-12T02:40:00,mcc,50.29
2022-11-12T02:41:00,mcc,53.22
2022-11-12T02:42:00,mcc,50.40
2022-11-12T02:43:00,mcc,50.12
2022-11-12T02:44:00,mcc,49.34
2022-11-12T02:45:00,mcc,50.30
2022-11-12T02:46:00,mcc,47.78
2022-11-12T02:47:00,mcc,48.29
2022-11-12T02:48:00,mcc,49.07
2022-11-12T02:49:00,mcc,52.14
2022-11-12T02:50:00,mcc,48.68
2022-11-12T02:51:00,mcc,49.97
2022-11-12T02:52:00,mcc,49.45
2022-11-12T02:53:00,mcc,51.50
2022-11-12T02:54:00,mcc,50.38
2022-11-12T02:55:00,mcc,51.20
2022-11-12T02:56:00,mcc,52.04
2022-11-12T02:57:00,mcc,53.26
2022-11-12T02:58:00,mcc,50.96
2022-11-12T02:59:00,mcc,50.98
2022-11-12T03:00:00,mcc,51.08
2022-11-12T03:01:00,mcc,54.34
2022-11-12T03:02:00,mcc,53.26
2022-11-12T03:03:00,mcc,52.42
2022-11-12T03:04:00,mcc,52.51
2022-11-12T03:05:00,mcc,54.02
2022-11-12T03:06:00,mcc,52.31
2022-11-12T03:07:00,mcc,50.45
2022-11-12T03:08:00,mcc,50.17
2022-11-12T03:09:00,mcc,49.74
2022-11-12T03:10:00,mcc,53.13
2022-11-12T03:11:00,mcc,52.25
2022-11-12T03:12:00,mcc,51.64
2022-11-12T03:13:00,mcc,52.60
2022-11-12T03:14:00,mcc,54.41
2022-11-12T03:15:00,mcc,51.91
2022-11-12T03:16:00,mcc,51.68
2022-11-12T03:17:00,mcc,49.54
2022-11-12T03:18:00,mcc,52.22
2022-11-12T03:19:00,mcc,50.95
2022-11-12T03:20:00,mcc,51.56
2022-11-12T03:21:00,mcc,51.20
2022-11-12T03:22:00,mcc,53.87
2022-11-12T03:23:00,mcc,58.03
2022-11-12T03:24:00,mcc,49.42
2022-11-12T03:25:00,mcc,49.55
2022-11-12T03:26:00,mcc,51.15
2022-11-12T03:27:00,mcc,49.16
2022-11-12T03:28:00,mcc,48.48
2022-11-12T03:29:00,mcc,49.47
2022-11-12T03:30:00,mcc,50.07
2022-11-12T03:31:00,mcc,46.61
2022-11-12T03:32:00,mcc,38.91
2022-11-12T03:33:00,mcc,39.79
2022-11-12T03:34:00,mcc,42.21
2022-11-12T03:35:00,mcc,39.38
2022-11-12T03:36:00,mcc,41.86
2022-11-12T03:37:00,mcc,42.77
2022-11-12T03:38:00,mcc,41.30
2022-11-12T03:39:00,mcc,43.95
2022-11-12T03:40:00,mcc,40.67
2022-11-12T03:41:00,mcc,42.90
2022-11-12T03:42:00,mcc,42.83
2022-11-12T03:43:00,mcc,53.33
2022-11-12T03:44:00,mcc,40.19
2022-11-12T03:45:00,mcc,40.55
2022-11-12T03:46:00,mcc,40.11
2022-11-12T03:47:00,mcc,43.59
2022-11-12T03:48:00,mcc,41.08
2022-11-12T03:49:00,mcc,38.92
2022-11-12T03:50:00,mcc,39.70
2022-11-12T03:51:00,mcc,40.58
2022-11-12T03:52:00,mcc,38.16
2022-11-12T03:53:00,mcc,39.38
2022-11-12T03:54:00,mcc,38.67
2022-11-12T03:55:00,mcc,41.13
2022-11-12T03:56:00,mcc,38.45
2022-11-12T03:57:00,mcc,48.18
2022-11-12T03:58:00,mcc,37.71
2022-11-12T03:59:00,mcc,39.61
2022-11-12T04:00:00,mcc,37.91
2022-11-12T04:01:00,mcc,38.68
2022-11-12T04:02:00,mcc,38.29
2022-11-12T04:03:00,mcc,40.80
2022-11-12T04:04:00,mcc,40.18
2022-11-12T04:05:00,mcc,40.51
2022-11-12T04:06:00,mcc,38.44
2022-11-12T04:07:00,mcc,40.37
2022-11-12T04:08:00,mcc,38.96
2022-11-12T04:09:00,mcc,40.60
2022-11-12T04:10:00,mcc,52.15
2022-11-12T04:11:00,mcc,42.36
2022-11-12T04:12:00,mcc,45.74
2022-11-12T04:13:00,mcc,45.19
2022-11-12T04:14:00,mcc,42.64
2022-11-12T04:15:00,mcc,40.80
2022-11-12T04:16:00,mcc,42.39
2022-11-12T04:17:00,mcc,40.56
2022-11-12T04:18:00,mcc,42.00
2022-11-12T04:19:00,mcc,42.26
2022-11-12T04:20:00,mcc,43.38
2022-11-12T04:21:00,mcc,40.18
2022-11-12T04:22:00,mcc,38.53
2022-11-12T04:23:00,mcc,48.04
2022-11-12T04:24:00,mcc,42.12
2022-11-12T04:25:00,mcc,39.90
2022-11-12T04:26:00,mcc,40.58
2022-11-12T04:27:00,mcc,38.45
2022-11-12T04:28:00,mcc,38.78
2022-11-12T04:29:00,mcc,38.29
2022-11-12T04:30:00,mcc,37.84
2022-11-12T04:31:00,mcc,37.02
2022-11-12T04:32:00,mcc,36.90
2022-11-12T04:33:00,mcc,36.27
2022-11-12T04:34:00,mcc,36.83
2022-11-12T04:35:00,mcc,37.44
2022-11-12T04:36:00,mcc,38.98
2022-11-12T04:37:00,mcc,40.72
2022-11-12T04:38:00,mcc,38.76
2022-11-12T04:39:00,mcc,37.38
2022-11-12T04:40:00,mcc,38.58
2022-11-12T04:41:00,mcc,39.36
2022-11-12T04:42:00,mcc,40.27
2022-11-12T04:43:00,mcc,48.18
2022-11-12T04:44:00,mcc,41.28
2022-11-12T04:45:00,mcc,44.21
2022-11-12T04:46:00,mcc,42.37
2022-11-12T04:47:00,mcc,40.23
2022-11-12T04:48:00,mcc,40.19
2022-11-12T04:49:00,mcc,43.02
2022-11-12T04:50:00,mcc,40.55
2022-11-12T04:51:00,mcc,40.01
2022-11-12T04:52:00,mcc,39.36
2022-11-12T04:53:00,mcc,41.62
2022-11-12T04:54:00,mcc,39.51
2022-11-12T04:55:00,mcc,39.08
2022-11-12T04:56:00,mcc,38.73
2022-11-12T04:57:00,mcc,37.68
2022-11-12T04:58:00,mcc,37.20
2022-11-12T04:59:00,mcc,36.35
2022-11-12T05:00:00,mcc,35.95
2022-11-12T05:01:00,mcc,36.18
2022-11-12T05:02:00,mcc,47.21
2022-11-12T05:03:00,mcc,37.15
2022-11-12T05:04:00,mcc,40.35
2022-11-12T05:05:00,mcc,39.34
2022-11-12T05:06:00,mcc,40.05
2022-11-12T05:07:00,mcc,41.69
2022-11-12T05:08:00,mcc,42.81
2022-11-12T05:09:00,mcc,42.34
2022-11-12T05:10:00,mcc,44.51
2022-11-12T05:11:00,mcc,41.69
2022-11-12T05:12:00,mcc,41.26
2022-11-12T05:13:00,mcc,40.44
2022-11-12T05:14:00,mcc,39.73
2022-11-12T05:15:00,mcc,39.58
2022-11-12T05:16:00,mcc,40.16
2022-11-12T05:17:00,mcc,39.73
2022-11-12T05:18:00,mcc,39.75
2022-11-12T05:19:00,mcc,37.47
2022-11-12T05:20:00,mcc,37.53
2022-11-12T05:21:00,mcc,37.63
2022-11-12T05:22:00,mcc,38.20
2022-11-12T05:23:00,mcc,40.10
2022-11-12T05:24:00,mcc,36.42
2022-11-12T05:25:00,mcc,38.28
2022-11-12T05:26:00,mcc,50.52
2022-11-12T05:27:00,mcc,53.74
2022-11-12T05:28:00,mcc,40.57
2022-11-12T05:29:00,mcc,41.00
2022-11-12T05:30:00,mcc,41.34
2022-11-12T05:31:00,mcc,42.22
2022-11-12T05:32:00,mcc,39.30
2022-11-12T05:33:00,mcc,39.40
2022-11-12T05:34:00,mcc,38.88
2022-11-12T05:35:00,mcc,40.48
2022-11-12T05:36:00,mcc,38.58
2022-11-12T05:37:00,mcc,37.98
2022-11-12T05:38:00,mcc,38.30
2022-11-12T05:39:00,mcc,40.35
2022-11-12T05:40:00,mcc,42.38
2022-11-12T05:41:00,mcc,40.94
2022-11-12T05:42:00,mcc,47.94
2022-11-12T05:43:00,mcc,42.62
2022-11-12T05:44:00,mcc,41.95
2022-11-12T05:45:00,mcc,38.73
2022-11-12T05:46:00,mcc,42.22
2022-11-12T05:47:00,mcc,42.09
2022-11-12T05:48:00,mcc,44.11
2022-11-12T05:49:00,mcc,40.32
2022-11-12T05:50:00,mcc,37.70
2022-11-12T05:51:00,mcc,36.95
2022-11-12T05:52:00,mcc,38.31
2022-11-12T05:53:00,mcc,36.91
2022-11-12T05:54:00,mcc,39.68
2022-11-12T05:55:00,mcc,37.99
2022-11-12T05:56:00,mcc,39.35
2022-11-12T05:57:00,mcc,36.69
2022-11-12T05:58:00,mcc,37.71
2022-11-12T05:59:00,mcc,38.44
2022-11-12T06:00:00,mcc,39.93
2022-11-12T06:01:00,mcc,38.93
2022-11-12T06:02:00,mcc,47.64
2022-11-12T06:03:00,mcc,39.63
2022-11-12T06:04:00,mcc,38.76
2022-11-12T06:05:00,mcc,48.33
2022-11-12T06:06:00,mcc,47.60
2022-11-12T06:07:00,mcc,47.92
2022-11-12T06:08:00,mcc,38.95
2022-11-12T06:09:00,mcc,39.85
2022-11-12T06:10:00,mcc,39.25
2022-11-12T06:11:00,mcc,39.49
2022-11-12T06:12:00,mcc,38.45
2022-11-12T06:13:00,mcc,41.19
2022-11-12T06:14:00,mcc,38.85
2022-11-12T06:15:00,mcc,38.68
2022-11-12T06:16:00,mcc,39.41
2022-11-12T06:17:00,mcc,39.37
2022-11-12T06:18:00,mcc,37.18
2022-11-12T06:19:00,mcc,39.80
2022-11-12T06:20:00,mcc,36.32
2022-11-12T06:21:00,mcc,39.02
2022-11-12T06:22:00,mcc,44.45
2022-11-12T06:23:00,mcc,35.91
2022-11-12T06:24:00,mcc,37.20
2022-11-12T06:25:00,mcc,39.73
2022-11-12T06:26:00,mcc,36.60
2022-11-12T06:27:00,mcc,39.11
2022-11-12T06:28:00,mcc,38.98
2022-11-12T06:29:00,mcc,41.02
2022-11-12T06:30:00,mcc,38.26
2022-11-12T06:31:00,mcc,40.05
2022-11-12T06:32:00,mcc,36.87
2022-11-12T06:33:00,mcc,37.21
2022-11-12T06:34:00,mcc,40.91
2022-11-12T06:35:00,mcc,37.88
2022-11-12T06:36:00,mcc,37.57
2022-11-12T06:37:00,mcc,39.49
2022-11-12T06:38:00,mcc,40.54
2022-11-12T06:39:00,mcc,35.41
2022-11-12T06:40:00,mcc,36.50
2022-11-12T06:41:00,mcc,45.23
2022-11-12T06:42:00,mcc,38.96
2022-11-12T06:43:00,mcc,35.99
2022-11-12T06:44:00,mcc,37.59
2022-11-12T06:45:00,mcc,40.08
2022-11-12T06:46:00,mcc,39.22
2022-11-12T06:47:00,mcc,50.79
2022-11-12T06:48:00,mcc,38.01
2022-11-12T06:49:00,mcc,37.58
2022-11-12T06:50:00,mcc,37.13
2022-11-12T06:51:00,mcc,37.89
2022-11-12T06:52:00,mcc,39.64
2022-11-12T06:53:00,mcc,44.53
2022-11-12T06:54:00,mcc,43.55
2022-11-12T06:55:00,mcc,44.80
2022-11-12T06:56:00,mcc,42.20
2022-11-12T06:57:00,mcc,39.90
2022-11-12T06:58:00,mcc,39.31
2022-11-12T06:59:00,mcc,42.75
2022-11-12T07:00:00,mcc,39.30
2022-11-12T07:01:00,mcc,59.47
2022-11-12T07:02:00,mcc,47.08
2022-11-12T07:03:00,mcc,45.76
2022-11-12T07:04:00,mcc,45.25
2022-11-12T07:05:00,mcc,43.30
2022-11-12T07:06:00,mcc,50.19
2022-11-12T07:07:00,mcc,43.46
2022-11-12T07:08:00,mcc,45.65
2022-11-12T07:09:00,mcc,43.68
2022-11-12T07:10:00,mcc,43.97
2022-11-12T07:11:00,mcc,47.42
2022-11-12T07:12:00,mcc,48.73
2022-11-12T07:13:00,mcc,44.88
2022-11-12T07:14:00,mcc,45.54
2022-11-12T07:15:00,mcc,44.94
2022-11-12T07:16:00,mcc,38.05
2022-11-12T07:17:00,mcc,36.12
2022-11-12T07:18:00,mcc,36.48
2022-11-12T07:19:00,mcc,38.12
2022-11-12T07:20:00,mcc,40.85
2022-11-12T07:21:00,mcc,47.37
2022-11-12T07:22:00,mcc,37.88
2022-11-12T07:23:00,mcc,36.24
2022-11-12T07:24:00,mcc,37.80
2022-11-12T07:25:00,mcc,35.81
2022-11-12T07:26:00,mcc,34.70
2022-11-12T07:27:00,mcc,35.51
2022-11-12T07:28:00,mcc,35.82
2022-11-12T07:29:00,mcc,34.46
2022-11-12T07:30:00,mcc,37.01
2022-11-12T07:31:00,mcc,35.85
2022-11-12T07:32:00,mcc,36.61
2022-11-12T07:33:00,mcc,37.54
2022-11-12T07:34:00,mcc,37.36
2022-11-12T07:35:00,mcc,37.41
2022-11-12T07:36:00,mcc,37.61
2022-11-12T07:37:00,mcc,40.16
2022-11-12T07:38:00,mcc,38.25
2022-11-12T07:39:00,mcc,38.23
2022-11-12T07:40:00,mcc,37.88
2022-11-12T07:41:00,mcc,41.85
2022-11-12T07:42:00,mcc,39.26
2022-11-12T07:43:00,mcc,39.21
2022-11-12T07:44:00,mcc,40.46
2022-11-12T07:45:00,mcc,40.61
2022-11-12T07:46:00,mcc,39.48
2022-11-12T07:47:00,mcc,39.05
2022-11-12T07:48:00,mcc,38.76
2022-11-12T07:49:00,mcc,38.20
2022-11-12T07:50:00,mcc,40.21
2022-11-12T07:51:00,mcc,38.81
2022-11-12T07:52:00,mcc,38.83
2022-11-12T07:53:00,mcc,38.19
2022-11-12T07:54:00,mcc,42.81
2022-11-12T07:55:00,mcc,38.23
2022-11-12T07:56:00,mcc,39.91
2022-11-12T07:57:00,mcc,38.24
2022-11-12T07:58:00,mcc,40.11
2022-11-12T07:59:00,mcc,38.50
2022-11-12T08:00:00,mcc,38.75
2022-11-12T08:01:00,mcc,42.63
2022-11-12T08:02:00,mcc,43.22
2022-11-12T08:03:00,mcc,47.06
2022-11-12T08:04:00,mcc,46.88
2022-11-12T08:05:00,mcc,48.28
2022-11-12T08:06:00,mcc,50.77
2022-11-12T08:07:00,mcc,59.92
2022-11-12T08:08:00,mcc,45.87
2022-11-12T08:09:00,mcc,47.49
2022-11-12T08:10:00,mcc,49.97
2022-11-12T08:11:00,mcc,47.76
2022-11-12T08:12:00,mcc,43.20
2022-11-12T08:13:00,mcc,45.30
2022-11-12T08:14:00,mcc,44.78
2022-11-12T08:15:00,mcc,45.99
2022-11-12T08:16:00,mcc,44.97
2022-11-12T08:17:00,mcc,44.15
2022-11-12T08:18:00,mcc,44.78
2022-11-12T08:19:00,mcc,46.71
2022-11-12T08:20:00,mcc,52.09
2022-11-12T08:21:00,mcc,44.03
2022-11-12T08:22:00,mcc,42.60
2022-11-12T08:23:00,mcc,44.25
2022-11-12T08:24:00,mcc,42.50
2022-11-12T08:25:00,mcc,45.01
2022-11-12T08:26:00,mcc,44.16
2022-11-12T08:27:00,mcc,46.29
2022-11-12T08:28:00,mcc,43.20
2022-11-12T08:29:00,mcc,41.61
2022-11-12T08:30:00,mcc,41.70
2022-11-12T08:31:00,mcc,43.58
2022-11-12T08:32:00,mcc,43.00
2022-11-12T08:33:00,mcc,43.48
2022-11-12T08:34:00,mcc,42.51
2022-11-12T08:35:00,mcc,44.10
2022-11-12T08:36:00,mcc,42.46
2022-11-12T08:37:00,mcc,43.01
2022-11-12T08:38:00,mcc,45.50
2022-11-12T08:39:00,mcc,44.67
2022-11-12T08:40:00,mcc,46.47
2022-11-12T08:41:00,mcc,45.70
2022-11-12T08:42:00,mcc,44.95
2022-11-12T08:43:00,mcc,44.54
2022-11-12T08:44:00,mcc,47.50
2022-11-12T08:45:00,mcc,47.91
2022-11-12T08:46:00,mcc,45.66
2022-11-12T08:47:00,mcc,46.56
2022-11-12T08:48:00,mcc,49.20
2022-11-12T08:49:00,mcc,46.29
2022-11-12T08:50:00,mcc,45.75
2022-11-12T08:51:00,mcc,45.69
2022-11-12T08:52:00,mcc,48.10
2022-11-12T08:53:00,mcc,44.70
2022-11-12T08:54:00,mcc,44.82
2022-11-12T08:55:00,mcc,41.79
2022-11-12T08:56:00,mcc,42.44
2022-11-12T08:57:00,mcc,40.98
2022-11-12T08:58:00,mcc,43.93
2022-11-12T08:59:00,mcc,42.40
2022-11-12T09:00:00,mcc,43.18
2022-11-12T09:01:00,mcc,45.96
2022-11-12T09:02:00,mcc,43.67
2022-11-12T09:03:00,mcc,44.50
2022-11-12T09:04:00,mcc,43.62
2022-11-12T09:05:00,mcc,45.34
2022-11-12T09:06:00,mcc,43.83
2022-11-12T09:07:00,mcc,43.92
2022-11-12T09:08:00,mcc,43.23
2022-11-12T09:09:00,mcc,45.88
2022-11-12T09:10:00,mcc,43.14
2022-11-12T09:11:00,mcc,44.33
2022-11-12T09:12:00,mcc,46.17
2022-11-12T09:13:00,mcc,48.45
2022-11-12T09:14:00,mcc,44.31
2022-11-12T09:15:00,mcc,44.02
2022-11-12T09:16:00,mcc,47.48
2022-11-12T09:17:00,mcc,49.10
2022-11-12T09:18:00,mcc,46.13
2022-11-12T09:19:00,mcc,47.15
2022-11-12T09:20:00,mcc,43.12
2022-11-12T09:21:00,mcc,44.74
2022-11-12T09:22:00,mcc,42.19
2022-11-12T09:23:00,mcc,42.01
2022-11-12T09:24:00,mcc,43.73
2022-11-12T09:25:00,mcc,43.67
2022-11-12T09:26:00,mcc,54.71
2022-11-12T09:27:00,mcc,41.61
2022-11-12T09:28:00,mcc,42.69
2022-11-12T09:29:00,mcc,41.67
2022-11-12T09:30:00,mcc,43.65
2022-11-12T09:31:00,mcc,41.86
2022-11-12T09:32:00,mcc,42.60
2022-11-12T09:33:00,mcc,42.66
2022-11-12T09:34:00,mcc,45.45
2022-11-12T09:35:00,mcc,42.04
2022-11-12T09:36:00,mcc,42.53
2022-11-12T09:37:00,mcc,41.08
2022-11-12T09:38:00,mcc,51.47
2022-11-12T09:39:00,mcc,41.49
2022-11-12T09:40:00,mcc,42.20
2022-11-12T09:41:00,mcc,41.66
2022-11-12T09:42:00,mcc,42.24
2022-11-12T09:43:00,mcc,44.54
2022-11-12T09:44:00,mcc,45.50
2022-11-12T09:45:00,mcc,49.17
2022-11-12T09:46:00,mcc,48.62
2022-11-12T09:47:00,mcc,49.21
2022-11-12T09:48:00,mcc,46.98
2022-11-12T09:49:00,mcc,47.99
2022-11-12T09:50:00,mcc,46.92
2022-11-12T09:51:00,mcc,49.56
2022-11-12T09:52:00,mcc,48.41
2022-11-12T09:53:00,mcc,47.58
2022-11-12T09:54:00,mcc,45.50
2022-11-12T09:55:00,mcc,46.95
2022-11-12T09:56:00,mcc,45.19
2022-11-12T09:57:00,mcc,52.40
2022-11-12T09:58:00,mcc,43.02
2022-11-12T09:59:00,mcc,45.77
2022-11-12T10:00:00,mcc,43.90
2022-11-12T10:01:00,mcc,45.52
2022-11-12T10:02:00,mcc,44.53
2022-11-12T10:03:00,mcc,47.25
2022-11-12T10:04:00,mcc,44.08
2022-11-12T10:05:00,mcc,44.79
2022-11-12T10:06:00,mcc,44.71
2022-11-12T10:07:00,mcc,45.28
2022-11-12T10:08:00,mcc,45.88
2022-11-12T10:09:00,mcc,42.71
2022-11-12T10:10:00,mcc,41.14
2022-11-12T10:11:00,mcc,42.11
2022-11-12T10:12:00,mcc,43.85
2022-11-12T10:13:00,mcc,41.55
2022-11-12T10:14:00,mcc,39.53
2022-11-12T10:15:00,mcc,38.92
2022-11-12T10:16:00,mcc,41.77
2022-11-12T10:17:00,mcc,41.53
2022-11-12T10:18:00,mcc,41.88
2022-11-12T10:19:00,mcc,44.32
2022-11-12T10:20:00,mcc,48.29
2022-11-12T10:21:00,mcc,43.50
2022-11-12T10:22:00,mcc,43.48
2022-11-12T10:23:00,mcc,44.29
2022-11-12T10:24:00,mcc,47.03
2022-11-12T10:25:00,mcc,44.77
2022-11-12T10:26:00,mcc,44.86
2022-11-12T10:27:00,mcc,45.16
2022-11-12T10:28:00,mcc,47.57
2022-11-12T10:29:00,mcc,42.74
2022-11-12T10:30:00,mcc,42.91
2022-11-12T10:31:00,mcc,43.17
2022-11-12T10:32:00,mcc,44.75
2022-11-12T10:33:00,mcc,44.39
2022-11-12T10:34:00,mcc,41.89
2022-11-12T10:35:00,mcc,40.95
2022-11-12T10:36:00,mcc,43.11
2022-11-12T10:37:00,mcc,45.93
2022-11-12T10:38:00,mcc,47.24
2022-11-12T10:39:00,mcc,46.65
2022-11-12T10:40:00,mcc,43.73
2022-11-12T10:41:00,mcc,44.94
2022-11-12T10:42:00,mcc,46.41
2022-11-12T10:43:00,mcc,57.72
2022-11-12T10:44:00,mcc,57.49
2022-11-12T10:45:00,mcc,44.00
2022-11-12T10:46:00,mcc,42.92
2022-11-12T10:47:00,mcc,42.10
2022-11-12T10:48:00,mcc,41.77
2022-11-12T10:49:00,mcc,43.98
2022-11-12T10:50:00,mcc,44.22
2022-11-12T10:51:00,mcc,44.15
2022-11-12T10:52:00,mcc,45.26
2022-11-12T10:53:00,mcc,47.82
2022-11-12T10:54:00,mcc,42.70
2022-11-12T10:55:00,mcc,43.89
2022-11-12T10:56:00,mcc,52.15
2022-11-12T10:57:00,mcc,46.29
2022-11-12T10:58:00,mcc,44.81
2022-11-12T10:59:00,mcc,44.38
2022-11-12T11:00:00,mcc,44.70
2022-11-12T11:01:00,mcc,55.25
2022-11-12T11:02:00,mcc,53.26
2022-11-12T11:03:00,mcc,52.96
2022-11-12T11:04:00,mcc,52.44
2022-11-12T11:05:00,mcc,43.66
2022-11-12T11:06:00,mcc,43.17
2022-11-12T11:07:00,mcc,47.52
2022-11-12T11:08:00,mcc,46.74
2022-11-12T11:09:00,mcc,45.93
2022-11-12T11:10:00,mcc,47.51
2022-11-12T11:11:00,mcc,47.74
2022-11-12T11:12:00,mcc,49.75
2022-11-12T11:13:00,mcc,50.39
2022-11-12T11:14:00,mcc,51.84
2022-11-12T11:15:00,mcc,49.70
2022-11-12T11:16:00,mcc,50.45
2022-11-12T11:17:00,mcc,49.38
2022-11-12T11:18:00,mcc,58.66
2022-11-12T11:19:00,mcc,57.07
2022-11-12T11:20:00,mcc,58.20
2022-11-12T11:21:00,mcc,57.55
2022-11-12T11:22:00,mcc,61.83
2022-11-12T11:23:00,mcc,60.94
2022-11-12T11:24:00,mcc,60.41
2022-11-12T11:25:00,mcc,60.48
2022-11-12T11:26:00,mcc,63.57
2022-11-12T11:27:00,mcc,60.16
2022-11-12T11:28:00,mcc,60.54
2022-11-12T11:29:00,mcc,58.83
2022-11-12T11:30:00,mcc,61.46
2022-11-12T11:31:00,mcc,59.73
2022-11-12T11:32:00,mcc,59.52
2022-11-12T11:33:00,mcc,58.84
2022-11-12T11:34:00,mcc,62.27
2022-11-12T11:35:00,mcc,62.22
2022-11-12T11:36:00,mcc,59.90
2022-11-12T11:37:00,mcc,58.80
2022-11-12T11:38:00,mcc,58.91
2022-11-12T11:39:00,mcc,60.61
2022-11-12T11:40:00,mcc,59.45
2022-11-12T11:41:00,mcc,57.93
2022-11-12T11:42:00,mcc,57.75
2022-11-12T11:43:00,mcc,59.63
2022-11-12T11:44:00,mcc,56.89
2022-11-12T11:45:00,mcc,55.61
2022-11-12T11:46:00,mcc,55.35
2022-11-12T11:47:00,mcc,56.87
2022-11-12T11:48:00,mcc,62.84
2022-11-12T11:49:00,mcc,62.82
2022-11-12T11:50:00,mcc,61.56
2022-11-12T11:51:00,mcc,65.14
2022-11-12T11:52:00,mcc,57.91
2022-11-12T11:53:00,mcc,61.31
2022-11-12T11:54:00,mcc,69.62
2022-11-12T11:55:00,mcc,62.09
2022-11-12T11:56:00,mcc,59.05
2022-11-12T11:57:00,mcc,57.39
2022-11-12T11:58:00,mcc,58.29
2022-11-12T11:59:00,mcc,58.20
2022-11-12T12:00:00,mcc,61.34
2022-11-12T12:01:00,mcc,58.83
2022-11-12T12:02:00,mcc,56.21
2022-11-12T12:03:00,mcc,66.53
2022-11-12T12:04:00,mcc,55.74
2022-11-12T12:05:00,mcc,55.23
2022-11-12T12:06:00,mcc,55.44
2022-11-12T12:07:00,mcc,58.03
2022-11-12T12:08:00,mcc,60.39
2022-11-12T12:09:00,mcc,59.65
2022-11-12T12:10:00,mcc,59.47
2022-11-12T12:11:00,mcc,59.07
2022-11-12T12:12:00,mcc,60.27
2022-11-12T12:13:00,mcc,58.57
2022-11-12T12:14:00,mcc,57.83
2022-11-12T12:15:00,mcc,57.69
2022-11-12T12:16:00,mcc,59.38
2022-11-12T12:17:00,mcc,57.27
2022-11-12T12:18:00,mcc,55.96
2022-11-12T12:19:00,mcc,56.55
2022-11-12T12:20:00,mcc,58.61
2022-11-12T12:21:00,mcc,57.64
2022-11-12T12:22:00,mcc,56.19
2022-11-12T12:23:00,mcc,55.48
2022-11-12T12:24:00,mcc,56.24
2022-11-12T12:25:00,mcc,58.37
2022-11-12T12:26:00,mcc,60.56
2022-11-12T12:27:00,mcc,58.86
2022-11-12T12:28:00,mcc,59.61
2022-11-12T12:29:00,mcc,60.50
2022-11-12T12:30:00,mcc,58.95
2022-11-12T12:31:00,mcc,59.22
2022-11-12T12:32:00,mcc,59.09
2022-11-12T12:33:00,mcc,61.98
2022-11-12T12:34:00,mcc,68.93
2022-11-12T12:35:00,mcc,59.10
2022-11-12T12:36:00,mcc,57.92
2022-11-12T12:37:00,mcc,57.95
2022-11-12T12:38:00,mcc,56.32
2022-11-12T12:39:00,mcc,56.96
2022-11-12T12:40:00,mcc,57.91
2022-11-12T12:41:00,mcc,57.50
2022-11-12T12:42:00,mcc,57.95
2022-11-12T12:43:00,mcc,57.86
2022-11-12T12:44:00,mcc,57.05
2022-11-12T12:45:00,mcc,57.44
2022-11-12T12:46:00,mcc,60.28
2022-11-12T12:47:00,mcc,57.94
2022-11-12T12:48:00,mcc,56.37
2022-11-12T12:49:00,mcc,57.17
2022-11-12T12:50:00,mcc,60.09
2022-11-12T12:51:00,mcc,58.54
2022-11-12T12:52:00,mcc,59.41
2022-11-12T12:53:00,mcc,60.23
2022-11-12T12:54:00,mcc,61.44
2022-11-12T12:55:00,mcc,57.48
2022-11-12T12:56:00,mcc,58.03
2022-11-12T12:57:00,mcc,60.56
2022-11-12T12:58:00,mcc,62.52
2022-11-12T12:59:00,mcc,61.70
2022-11-12T13:00:00,mcc,61.80
2022-11-12T13:01:00,mcc,60.91
2022-11-12T13:02:00,mcc,61.55
2022-11-12T13:03:00,mcc,59.84
2022-11-12T13:04:00,mcc,59.23
2022-11-12T13:05:00,mcc,58.81
2022-11-12T13:06:00,mcc,58.44
2022-11-12T13:07:00,mcc,61.73
2022-11-12T13:08:00,mcc,57.38
2022-11-12T13:09:00,mcc,55.53
2022-11-12T13:10:00,mcc,56.46
2022-11-12T13:11:00,mcc,60.90
2022-11-12T13:12:00,mcc,65.59
2022-11-12T13:13:00,mcc,57.04
2022-11-12T13:14:00,mcc,56.38
2022-11-12T13:15:00,mcc,57.47
2022-11-12T13:16:00,mcc,54.30
2022-11-12T13:17:00,mcc,55.70
2022-11-12T13:18:00,mcc,56.48